This is the latest recevied weather packets stored in our database for station/object KF4ZNO-13. If no packets are shown the sender has not sent any weather packets the latest 10 day(s).
| Time | Temp. | Humidity | Pressure | Rain* | Wind** | Luminosity | Snow |
|---|---|---|---|---|---|---|---|
| 1778230820 | 17.78° C | 90% | 1016.1 hPa | 0 mm | - | - | - |
| 1778218819 | 19.44° C | 90% | 1017 hPa | 0 mm | - | - | - |
| 1778217019 | 19.44° C | 90% | 1017.1 hPa | 0 mm | - | - | - |
| 1778212819 | 20° C | 89% | 1016.8 hPa | 0 mm | - | - | - |
| 1778210459 | 20.56° C | 89% | 1017.2 hPa | 0 mm | - | - | - |
| 1778207419 | 21.11° C | 90% | 1016.5 hPa | 0 mm | - | - | - |
| 1778204439 | 22.22° C | 91% | 1015.7 hPa | 0 mm | - | - | - |
| 1778203818 | 22.22° C | 91% | 1015.6 hPa | 0 mm | - | - | - |
| 1778202619 | 22.22° C | 91% | 1015.5 hPa | 0 mm | - | - | - |
| 1778199639 | 23.33° C | 91% | 1015.1 hPa | 0 mm | - | - | - |
| 1778196018 | 24.44° C | 90% | 1014.8 hPa | 0 mm | - | - | - |
| 1778195438 | 24.44° C | 90% | 1014.8 hPa | 0 mm | - | - | - |
| 1778193018 | 25° C | 89% | 1014.8 hPa | 0 mm | - | - | - |
| 1778192420 | 24.44° C | 89% | 1014.7 hPa | 0 mm | - | - | - |
| 1778190718 | 24.44° C | 88% | 1014.8 hPa | 0 mm | - | - | - |
| 1778190040 | 25° C | 87% | 1014.8 hPa | 0 mm | - | - | - |
| 1778187020 | 24.44° C | 89% | 1014.7 hPa | 0 mm | - | - | - |
| 1778183420 | 23.33° C | 92% | 1015 hPa | 0 mm | - | - | - |
| 1778182220 | 22.78° C | 92% | 1015.3 hPa | 0 mm | - | - | - |
| 1778181620 | 23.33° C | 93% | 1015.3 hPa | 0 mm | - | - | - |
| 1778179820 | 22.78° C | 93% | 1015.5 hPa | 0 mm | - | - | - |
| 1778173820 | 21.67° C | 92% | 1015.9 hPa | 0 mm | - | - | - |
| 1778172620 | 21.67° C | 92% | 1016 hPa | 0.25 mm | - | - | - |
| 1778170220 | 22.22° C | 93% | 1016.1 hPa | 4.06 mm | - | - | - |
| 1778169620 | 21.11° C | 92% | 1016.2 hPa | 7.37 mm | - | - | - |
* Rain latest hour (hover to see other rain measurements)
** Current wind speed in m/s (hover to see current wind gust speed)